Location: Clinton NY
(43.0598°N, 75.3602°W)
Time: 17:10:58
(UTC-04:00)

ISS - All Passes

Search period start: 04 May 2016 00:00
Search period end: 14 May 2016 00:00
Orbit: 402 x 405 km, 51.6° (Epoch: 04 May)

Date Brightness Start Highest point End Pass type
(mag) Time Alt. Az. Time Alt. Az. Time Alt. Az.
04 May - 06:27:28 10° S 06:29:48 18° SE 06:32:08 10° E daylight
04 May - 08:02:45 10° WSW 08:05:59 59° NNW 08:09:13 10° NE daylight
04 May - 09:40:25 10° WNW 09:42:56 20° N 09:45:27 10° NE daylight
04 May - 11:17:42 10° NW 11:20:13 20° N 11:22:45 10° ENE daylight
04 May - 12:53:56 10° NW 12:57:11 59° NNE 13:00:24 10° ESE daylight
04 May - 14:31:01 10° W 14:33:21 18° SW 14:35:41 10° S daylight
05 May - 07:10:11 10° SW 07:13:26 79° SSE 07:16:43 10° ENE daylight
05 May - 08:47:27 10° WNW 08:50:12 24° NNW 08:52:57 10° NE daylight
05 May - 10:25:05 10° NW 10:27:27 18° N 10:29:49 10° NE daylight
05 May - 12:01:30 10° NW 12:04:34 37° NNE 12:07:38 10° E daylight
05 May - 13:38:01 10° WNW 13:41:00 33° SW 13:43:59 10° SSE daylight
06 May - 06:17:53 10° SSW 06:20:59 41° SE 06:24:05 10° ENE daylight
06 May - 07:54:30 10° W 07:57:30 32° NNW 08:00:30 10° NE daylight
06 May - 09:32:19 10° NW 09:34:39 18° N 09:37:00 10° NE daylight
06 May - 11:09:03 10° NW 11:11:53 26° NNE 11:14:43 10° ENE daylight
06 May - 12:45:19 10° WNW 12:48:34 64° SW 12:51:47 10° SE daylight
07 May - 05:25:58 10° S 05:28:35 22° SE 05:31:11 10° E daylight
07 May - 07:01:39 10° WSW 07:04:50 49° NNW 07:08:02 10° NE daylight
07 May - 08:39:24 10° WNW 08:41:52 19° N 08:44:19 10° NE daylight
07 May - 10:16:33 10° NW 10:19:08 21° NNE 10:21:43 10° ENE daylight
07 May - 11:52:45 10° NW 11:56:01 70° NNE 11:59:16 10° ESE daylight
07 May - 13:30:09 10° W 13:32:07 15° SW 13:34:05 10° S daylight
08 May - 04:34:53 10° SSE 04:36:15 12° SE 04:37:35 10° ESE visible
08 May - 06:08:59 10° WSW 06:12:15 86° NNW 06:15:32 10° ENE daylight
08 May - 07:46:24 10° WNW 07:49:04 23° NNW 07:51:45 10° NE daylight
08 May - 09:23:56 10° NW 09:26:20 19° N 09:28:44 10° NE daylight
08 May - 11:00:16 10° NW 11:03:24 42° NNE 11:06:32 10° E daylight
08 May - 12:36:55 10° WNW 12:39:45 27° SW 12:42:34 10° SSE daylight
09 May - 05:16:33 10° SW 05:19:42 51° SE 05:22:54 10° ENE daylight
09 May - 06:53:23 10° W 06:56:18 29° NNW 06:59:14 10° NE daylight
09 May - 08:31:10 10° NW 08:33:30 18° N 08:35:50 10° NE daylight
09 May - 10:07:46 10° NW 10:10:42 29° NNE 10:13:36 10° E daylight
09 May - 11:44:06 10° WNW 11:47:18 52° SW 11:50:28 10° SE daylight
10 May - 04:24:27 10° SSW 04:27:14 27° SE 04:30:04 10° ENE visible
10 May - 06:00:27 10° W 06:03:35 43° NNW 06:06:44 10° NE daylight
10 May - 07:38:15 10° NW 07:40:39 19° N 07:43:03 10° NE daylight
10 May - 09:15:15 10° NW 09:17:55 22° NNE 09:20:35 10° ENE daylight
10 May - 10:51:27 10° NW 10:54:45 84° NE 10:58:00 10° ESE daylight
10 May - 12:29:20 10° WSW 12:30:46 12° SW 12:32:10 10° SSW daylight
11 May - 03:32:56 10° SSE 03:34:51 15° SE 03:36:46 10° E visible
11 May - 05:07:40 10° WSW 05:10:56 72° NNW 05:14:12 10° NE visible
11 May - 06:45:13 10° WNW 06:47:49 21° NNW 06:50:25 10° NE daylight
11 May - 08:22:38 10° NW 08:25:05 19° N 08:27:32 10° ENE daylight
11 May - 09:58:55 10° NW 10:02:06 49° NNE 10:05:17 10° ESE daylight
11 May - 11:35:44 10° W 11:38:22 23° SW 11:41:00 10° S daylight
12 May - 04:15:07 10° SW 04:18:20 62° SE 04:21:35 10° ENE visible
12 May - 05:52:09 10° W 05:55:00 27° NNW 05:57:51 10° NE daylight
12 May - 07:29:53 10° NW 07:32:13 18° N 07:34:33 10° NE daylight
12 May - 09:06:23 10° NW 09:09:22 32° NNE 09:12:21 10° E daylight
12 May - 10:42:46 10° WNW 10:45:54 42° SW 10:49:00 10° SSE daylight
13 May - 03:22:50 10° SSW 03:25:48 32° SE 03:28:47 10° ENE visible
13 May - 04:59:09 10° W 05:02:13 37° NNW 05:05:18 10° NE visible
13 May - 06:36:58 10° NW 06:39:20 18° N 06:41:42 10° NE daylight
13 May - 08:13:50 10° NW 08:16:35 24° NNE 08:19:19 10° ENE daylight
13 May - 09:50:04 10° WNW 09:53:20 81° SW 09:56:36 10° SE daylight
